Voltar ao catálogo

COSMOS 1867 COOLANT

AtivoLEO
NORAD 39672·DEBRIS·🇷🇺 Russia

Lançado Jul 10, 1987 de Baikonur Cosmodrome

Loading…

Próximas Passagens (próximas 24 horas)

TLE

AtualizadoSource: Space-Track

Época: Sep 14, 2026, 20:38 UTC

1 39672U 87060AK  26257.85997933  .00000165  00000-0  94266-4 0  9996
2 39672  65.0041 115.7986 0018456 278.9028  80.9968 14.34286345649539

Acompanhe COSMOS 1867 COOLANT em tempo real com AllMySat

Download on the App Store